2023/06/21 00:00:00,159.3,19.9
2023/06/21 00:10:00,159.2,19.8
2023/06/21 00:20:00,158.4,20.0
2023/06/21 00:30:00,158.7,19.8
2023/06/21 00:40:00,158.7,20.1
2023/06/21 00:50:00,---,20.0
2023/06/21 01:00:00,29.8,20.0
2023/06/21 01:10:00,47.8,20.1
2023/06/21 01:20:00, 0.0,19.9
2023/06/21 01:30:00,---,19.9
2023/06/21 01:40:00,159.4,19.8
2023/06/21 01:50:00,160.1,20.3
2023/06/21 02:00:00,---,19.7
2023/06/21 02:10:00,---,19.6
2023/06/21 02:20:00,---,19.7
2023/06/21 02:30:00,28.4,19.9
2023/06/21 02:40:00,41.3,19.7
2023/06/21 02:50:00,159.4,19.8
2023/06/21 03:00:00,159.8,19.5
2023/06/21 03:10:00,160.4,19.6
2023/06/21 03:20:00,160.7,19.5
2023/06/21 03:30:00,160.9,19.6
2023/06/21 03:40:00,161.1,19.6
2023/06/21 03:50:00,160.8,19.5
2023/06/21 04:00:00,160.2,19.5
2023/06/21 04:10:00,159.6,19.6
2023/06/21 04:20:00,---,19.5
2023/06/21 04:30:00,---,19.2
2023/06/21 04:40:00,159.8,19.4
2023/06/21 04:50:00,160.6,19.6
2023/06/21 05:00:00,160.9,19.6
2023/06/21 05:10:00,160.7,19.4
2023/06/21 05:20:00,160.7,19.5
2023/06/21 05:30:00,160.7,19.5
2023/06/21 05:40:00,160.7,19.6
2023/06/21 05:50:00,---,19.6
2023/06/21 06:00:00,---,19.8
2023/06/21 06:10:00,---,19.9
2023/06/21 06:20:00,---,20.1
2023/06/21 06:30:00,---,20.1
2023/06/21 06:40:00,73.9,20.2
2023/06/21 06:50:00,113.7,20.2
2023/06/21 07:00:00,---,20.0
2023/06/21 07:10:00,126.9,19.7
2023/06/21 07:20:00,---,19.8
2023/06/21 07:30:00,---,19.6
2023/06/21 07:40:00,---,19.6
2023/06/21 07:50:00,161.5,19.5
2023/06/21 08:00:00,---,19.2
2023/06/21 08:10:00,---,19.5
2023/06/21 08:20:00,---,18.5
2023/06/21 08:30:00,---,18.4
2023/06/21 08:40:00,---,18.7
2023/06/21 08:50:00,---,18.8
2023/06/21 09:00:00,---,19.1
2023/06/21 09:10:00,161.9,19.0
2023/06/21 09:20:00,161.5,19.1
2023/06/21 09:30:00,160.9,19.4
2023/06/21 09:40:00,161.4,20.0
2023/06/21 09:50:00,---,19.9
2023/06/21 10:00:00,---,19.7
2023/06/21 10:10:00,---,20.0
2023/06/21 10:20:00,---,19.8
2023/06/21 10:30:00,---,20.3
2023/06/21 10:40:00,162.4,20.4
2023/06/21 10:50:00,162.1,20.8
2023/06/21 11:00:00,161.9,20.9
2023/06/21 11:10:00,161.9,20.6
2023/06/21 11:20:00,161.9,20.4
2023/06/21 11:30:00,161.8,21.1
2023/06/21 11:40:00,161.4,21.1
2023/06/21 11:50:00,161.6,21.2
2023/06/21 12:00:00,141.5,21.1
2023/06/21 12:10:00,---,20.4
2023/06/21 12:20:00,161.4,20.5
2023/06/21 12:30:00,137.2,21.2
2023/06/21 12:40:00,143.0,21.1
2023/06/21 12:50:00,160.7,21.2
2023/06/21 13:00:00,161.2,21.2
2023/06/21 13:10:00,---,20.9
2023/06/21 13:20:00,---,20.9
2023/06/21 13:30:00,161.4,20.9
2023/06/21 13:40:00,161.9,21.2
2023/06/21 13:50:00,161.5,20.6
2023/06/21 14:00:00,161.0,20.8
2023/06/21 14:10:00,142.8,20.8
2023/06/21 14:20:00,142.6,20.4
2023/06/21 14:30:00,138.0,20.8
2023/06/21 14:40:00,86.8,20.6
2023/06/21 14:50:00,63.5,20.7
2023/06/21 15:00:00,85.9,21.1
2023/06/21 15:10:00,---,21.1
2023/06/21 15:20:00,---,20.8
2023/06/21 15:30:00,140.3,20.5
2023/06/21 15:40:00,130.4,20.4
2023/06/21 15:50:00,137.3,20.4
2023/06/21 16:00:00,126.7,20.5
2023/06/21 16:10:00,117.7,20.4
2023/06/21 16:20:00,141.4,20.5
2023/06/21 16:30:00,120.1,20.6
2023/06/21 16:40:00,100.5,20.4
2023/06/21 16:50:00,119.8,20.1
2023/06/21 17:00:00,129.8,20.2
2023/06/21 17:10:00,103.2,20.2
2023/06/21 17:20:00,103.4,19.9
2023/06/21 17:30:00,---,19.6
2023/06/21 17:40:00,---,20.0
2023/06/21 17:50:00,159.8,21.4
2023/06/21 18:00:00,160.7,20.3
2023/06/21 18:10:00,---,20.1
2023/06/21 18:20:00,---,20.2
2023/06/21 18:30:00,---,20.4
2023/06/21 18:40:00,118.4,20.6
2023/06/21 18:50:00,102.6,20.3
2023/06/21 19:00:00,136.5,20.2
2023/06/21 19:10:00,---,20.3
2023/06/21 19:20:00,160.8,20.2
2023/06/21 19:30:00,---,19.8
2023/06/21 19:40:00,---,19.8
2023/06/21 19:50:00,---,19.9
2023/06/21 20:00:00,160.3,19.7
2023/06/21 20:10:00,160.4,19.9
2023/06/21 20:20:00,160.4,19.8
2023/06/21 20:30:00,---,18.8
2023/06/21 20:40:00,---,18.5
2023/06/21 20:50:00,---,18.0
2023/06/21 21:00:00,107.3,17.8
2023/06/21 21:10:00,---,17.6
2023/06/21 21:20:00,161.6,17.6
2023/06/21 21:30:00,161.6,17.9
2023/06/21 21:40:00,---,18.1
2023/06/21 21:50:00,47.5,17.5
2023/06/21 22:00:00,---,17.6
2023/06/21 22:10:00, 0.0,18.2
2023/06/21 22:20:00, 0.0,17.8
2023/06/21 22:30:00, 0.0,18.0
2023/06/21 22:40:00, 0.0,18.1
2023/06/21 22:50:00,---,18.7
2023/06/21 23:00:00,---,18.4
2023/06/21 23:10:00, 0.0,18.6
2023/06/21 23:20:00, 0.0,18.4
2023/06/21 23:30:00, 0.0,18.3
2023/06/21 23:40:00,66.3,18.5
2023/06/21 23:50:00,11.7,18.4
